Regional Weather Roundup
Issued by NWS

Home | Current Version | Previous Version | Text Only | Print | Product List | Glossary On
Versions: 1 2 3 4 5 6 7 8 9 10 11 12 13 14 15 16 17 18 19 20 21 22 23 24 25 26 27 28 29 30 31 32 33 34 35 36 37 38 39 40 41 42 43 44 45 46 47 48 49 50
000
ASCA44 KEWX 030320
RWRMX

LATIN AMERICA AND CARIBBEAN REGIONAL WEATHER ROUNDUP
NATIONAL WEATHER SERVICE AUSTIN/SAN ANTONIO TX
1000 PM CDT TUE JUN 02 2015

NOTE: "FAIR" INDICATED FEW OR NO CLOUDS BELOW 12,000 FEET WITH NO
SIGNIFICANT WEATHER AND/OR OBSTRUCTIONS TO VISIBILITY.

BAJA CALIFORNIA

CITY           SKY/WX    TMP DP  RH WIND       PRES   REMARKS
LORETO         CLEAR     91  68  46 E6        29.76R HX  95
LA PAZ         CLEAR     79  59  50 SW9       29.85R
MEXICALI       CLEAR     90  23   9 W14       29.73S
S.J. DEL CABO  CLEAR     91  50  24 W12       29.81R
TIJUANA        CLEAR     61  54  77 NW12      29.98R

NORTHWESTERN MEXICO

CITY           SKY/WX    TMP DP  RH WIND       PRES   REMARKS
CULIACAN       MOCLDY    86  68  54 S8        29.84R
DURANGO        MOCLDY    73  21  14 NE6       30.15R
GUAYMAS          N/A    N/A N/A N/A MISG        N/A
HERMOSILLO     CLEAR     99  32   9 NW8       29.81R HX  93
CD. JUAREZ     PTCLDY    88  27  11 W7        29.90R
LOS MOCHIS     MOCLDY    82  66  57 SW5       29.82R
OBREGON        CLEAR     84  64  51 S6        29.77R

NORTHEASTERN MEXICO

CITY           SKY/WX    TMP DP  RH WIND       PRES   REMARKS
CHIHUAHUA      PTCLDY    81  43  26 SW12      30.01R
MATAMOROS      CLEAR     79  73  83 CALM      29.95R
MONCLOVA         N/A    N/A N/A N/A MISG        N/A
MONTERREY      PTCLDY    75  66  73 E6        29.93S
NUEVO LAREDO     N/A    N/A N/A N/A MISG        N/A
PIEDRAS NEGRAS   N/A    N/A N/A N/A MISG        N/A
REYNOSA        PTCLDY    75  70  83 SE5       29.92R
SALTILLO         N/A    N/A N/A N/A MISG        N/A
TORREON        PTCLDY    86  46  25 CALM      29.99R
CD. VICTORIA   PTCLDY    79  68  69 E7        29.93R

WESTERN MEXICO

CITY           SKY/WX    TMP DP  RH WIND       PRES   REMARKS
AGUASCALIENTES PTCLDY    72  30  21 E6        30.15R
DEL BAJIO      MOCLDY    73  43  33 NE7       30.20R
GUADALAJARA    MOCLDY    73  59  60 W14       30.09R
MANZANILLO       N/A    N/A N/A N/A MISG        N/A
MAZATLAN       PTCLDY    79  70  73 W8        29.82R
P. VALLARTA    PTCLDY    82  79  89 SW7       29.84S HX  93
ZACATECAS      MOCLDY    66  36  32 CALM      30.21R

CENTRAL MEXICO

CITY           SKY/WX    TMP DP  RH WIND       PRES   REMARKS
MEXICO CITY    CLOUDY    64  52  63 NE9       30.28
PUEBLA         LGT RAIN  57  54  88 CALM      30.32R
QUERETARO      MOCLDY    66  54  63 E12       30.25R
S. LUIS POTOSI MOCLDY    66  54  63 SE12      30.19R
TAMPICO        MOCLDY    81  70  69 E9        29.92R
TOLUCA         CLOUDY    57  50  77 SE6       30.36R

SOUTHERN MEXICO

CITY           SKY/WX    TMP DP  RH WIND       PRES   REMARKS
ACAPULCO       CLOUDY    84  75  74 W3        29.83R HX  92
OAXACA         CLOUDY    68  61  77 CALM      30.18R
VERACRUZ       PTCLDY    79  72  78 E6        29.93R
ZIHUATANEJO      N/A    N/A N/A N/A MISG        N/A

YUCATAN PENINSULA

CITY           SKY/WX    TMP DP  RH WIND       PRES   REMARKS
CAMPECHE       MOCLDY    82  73  74 NE12      29.88R
CANCUN         PTCLDY    79  73  83 E6        29.91S
COZUMEL        CLOUDY    75  72  88 CALM      29.91R
MERIDA         CLEAR     79  72  78 NE6       29.93R
TAPACHULA      PTCLDY    82  75  78 CALM      29.81S
TUX. GUTIERREZ CLOUDY    75  64  69 NW9       29.93S
VILLAHERMOSA   PTCLDY    77  73  88 CALM      29.94R

CENTRAL AMERICA

CITY           SKY/WX    TMP DP  RH WIND       PRES   REMARKS
BELIZE CITY    LGT RAIN  77  75  94 E8        29.91R
MANAGUA        PTCLDY    86  72  62 CALM      29.77S HX  92

CARIBBEAN

CITY           SKY/WX    TMP DP  RH WIND       PRES   REMARKS
KINGSTON       PTCLDY    82  73  74 SE16      29.89S
NASSAU         RAIN      75  73  94 VRB2      30.01S
SAN JUAN       PTCLDY    79  75  89 CALM      30.01R
SANTO DOMINGO  PTCLDY    79  75  89 E5        29.94S
ST. CROIX      CLEAR     77  73  88 N5        30.00
ST. MAARTEN    MOCLDY    79  75  89 E5        30.00S
ST. THOMAS     CLOUDY    81  73  78 E5        29.99

$$



USA.gov is the U.S. government's official web portal to all federal, state and local government web resources and services.